Location: Izdebno
(52.6670°N, 16.2170°E)
Time: 15:16:44
(UTC+01:00)

Vanguard 2 - Pass Details

Date: 04 February 2023
Orbit: 553 x 2927 km, 32.9° (Epoch: 24 March)

Event Time Altitude Azimuth Distance (km) Brightness Sun altitude
Rises 02:10:14 0° 265° (W) 6,481 - -46.6°
Reaches altitude 10° 02:15:13 10° 255° (WSW) 5,641 - -46.0°
Maximum altitude 02:28:42 29° 205° (SSW) 4,336 - -44.5°
Exits shadow 02:38:41 16° 162° (SSE) 4,895 11.4 -43.3°
Drops below altitude 10° 02:41:21 10° 154° (SSE) 5,252 11.6 -43.0°
Sets 02:45:49 0° 144° (SE) 5,979 12.1 -42.4°
